(241438) = 2008 XL12

Discovered at Mount Lemmon on 2008-12-02 by Mt. Lemmon Survey.

Orbit

Orbit type: Main Belt

Note: WebGL enabled browser required.

epoch2023-09-13.0
epoch JD2460200.5
perihelion date2023-06-14.53870
perihelion JD2460110.03870
argument of perihelion (°)179.74791
ascending node (°)208.72180
inclination (°)11.52511
eccentricity0.0663735
perihelion distance (AU)2.7346108
Tisserand w.r.t. Jupiter3.2
ΔV w.r.t. Earth (km/sec)10.9
semimajor axis (AU)2.9290200
mean anomaly (°)17.78620
mean daily motion (°/day)0.19661670
aphelion distance (AU)3.123
period (years)5.01
P-vector [x]0.87902654
P-vector [y]0.43708012
P-vector [z]0.19045554
Q-vector [x]-0.46700496
Q-vector [y]0.86978150
Q-vector [z]0.15933143
absolute magnitude15.96
phase slope0.15
uncertainty0
referenceMPEC 2024-A74
observations used432
oppositions15
arc length (days)7350
first opposition used2003
last opposition used2024
residual rms (arc-secs)0.66
perturbers coarse indicatorM-v
perturbers precise indicator003Ek
first observation date used2003-11-23.0
last observation date used2024-01-07.0
computer nameMPCLINUX
JD of orbit computation2456639.803220
perihelion JD uncertainty (days)2.2989E-04
argument of perihelion uncertainty (°)5.2558E-05
ascending node uncertainty (°)2.2998E-05
inclination uncertainty (°)5.3799E-06
eccentricity uncertainty 4.7365E-08
perihelion distance uncertainty (AU)1.4572E-07
Minimum Orbit Intersection Distances (in AU)
for orbit epoch: 2460200.5, reference: E2024-A74
Mercury2.39939
Venus2.0111
Earth1.73847
Mars1.28088
Jupiter2.22383
Saturn6.26923
Uranus15.3943
Neptune27.1042

Observations

440 total observations over interval: 2003 11 23.31034 – 2024 01 07.370080
These data are available for download (format description).

Date (UT) J2000 RA J2000 Dec Magn Location Ref
2003 11 23.31034 04 41 06.79 +11 10 45.2 20.4 V 691 – Steward Observatory, Kitt Peak-Spacewatch MPS 280388
2003 11 23.35575 04 41 04.49 +11 10 29.9 20.3 V 691 – Steward Observatory, Kitt Peak-Spacewatch MPS 280388
2003 11 23.39339 04 41 02.55 +11 10 17.1 20.3 V 691 – Steward Observatory, Kitt Peak-Spacewatch MPS 280388
2003 12 17.19151 04 21 16.02 +09 26 26.0 20.5 V 691 – Steward Observatory, Kitt Peak-Spacewatch MPS 280388
2003 12 17.22006 04 21 14.72 +09 26 21.3 20.5 V 691 – Steward Observatory, Kitt Peak-Spacewatch MPS 280388
2003 12 17.24834 04 21 13.39 +09 26 16.5 21.0 V 691 – Steward Observatory, Kitt Peak-Spacewatch MPS 280388
2006 04 26.40788 16 03 38.56 -13 42 40.1 20.9 V 691 – Steward Observatory, Kitt Peak-Spacewatch MPS 280388
2006 04 26.42857 16 03 37.77 -13 42 33.4 21.3 V 691 – Steward Observatory, Kitt Peak-Spacewatch MPS 280388
2006 04 26.44585 16 03 37.15 -13 42 26.9 21.2 V 691 – Steward Observatory, Kitt Peak-Spacewatch MPS 280388
2006 05 04.36461 15 58 28.41 -12 56 06.7 20.1 V 691 – Steward Observatory, Kitt Peak-Spacewatch MPS 280388
2006 05 04.38197 15 58 27.75 -12 56 02.5 20.4 V 691 – Steward Observatory, Kitt Peak-Spacewatch MPS 280388
2006 05 04.39933 15 58 26.99 -12 55 56.3 20.2 V 691 – Steward Observatory, Kitt Peak-Spacewatch MPS 280388
2006 05 26.24325 15 41 36.11 -10 53 31.4 20.3 V 691 – Steward Observatory, Kitt Peak-Spacewatch MPS 280388
2006 05 26.26065 15 41 35.27 -10 53 26.1 20.1 V 691 – Steward Observatory, Kitt Peak-Spacewatch MPS 280388
2006 05 26.27807 15 41 34.42 -10 53 21.1 20.2 V 691 – Steward Observatory, Kitt Peak-Spacewatch MPS 280388
2008 09 29.44232 04 50 44.95 +16 20 54.3 19.8 V G96 – Mt. Lemmon Survey MPS 280388
2008 09 29.44789 04 50 45.09 +16 20 53.0 20.1 V G96 – Mt. Lemmon Survey MPS 280388
2008 09 29.45341 04 50 45.16 +16 20 51.4 19.9 V G96 – Mt. Lemmon Survey MPS 280388
2008 09 29.45897 04 50 45.27 +16 20 49.8 20.0 V G96 – Mt. Lemmon Survey MPS 280388
2008 10 26.42507 04 50 33.72 +13 56 11.1 19.9 V G96 – Mt. Lemmon Survey MPS 280388
2008 10 26.42998 04 50 33.61 +13 56 09.4 19.7 V G96 – Mt. Lemmon Survey MPS 280388
2008 10 26.43490 04 50 33.50 +13 56 07.8 20.0 V G96 – Mt. Lemmon Survey MPS 280388
2008 10 26.43988 04 50 33.39 +13 56 05.2 19.6 V G96 – Mt. Lemmon Survey MPS 280388
2008 11 19.35682 04 35 47.79 +11 28 36.4 19.6 V 703 – Catalina Sky Survey MPS 280388
2008 11 19.36748 04 35 47.22 +11 28 33.0 19.7 V 703 – Catalina Sky Survey MPS 280388
2008 11 19.37808 04 35 46.68 +11 28 29.1 19.4 V 703 – Catalina Sky Survey MPS 280388
2008 11 19.38871 04 35 46.10 +11 28 23.3 18.7 V 703 – Catalina Sky Survey MPS 280388
2008 12 02.36509 04 24 45.61 +10 18 38.5 19.2 V G96 – Mt. Lemmon Survey MPS 269371
2008 12 02.37178 04 24 45.25 +10 18 36.6 19.4 V G96 – Mt. Lemmon Survey MPS 269371
2008 12 02.37849 04 24 44.92 +10 18 34.7 19.2 V G96 – Mt. Lemmon Survey MPS 269371
2008 12 02.38526 04 24 44.56 +10 18 32.6 19.3 V G96 – Mt. Lemmon Survey MPS 269371
2008 12 03.37234 04 23 54.13 +10 13 54.5 19.2 V 703 – Catalina Sky Survey MPS 269371
2008 12 03.37814 04 23 53.84 +10 13 53.2 19.1 V 703 – Catalina Sky Survey MPS 269371
2008 12 03.38393 04 23 53.52 +10 13 51.3 19.5 V 703 – Catalina Sky Survey MPS 269371
2008 12 03.38977 04 23 53.19 +10 13 49.5 19.2 V 703 – Catalina Sky Survey MPS 269371
2010 02 20.394600 10 30 16.261 -04 51 49.02 20.72 r F51 – Pan-STARRS 1, Haleakala MPS 319421
2010 02 20.403195 10 30 15.897 -04 51 45.60 20.74 r F51 – Pan-STARRS 1, Haleakala MPS 319421
2010 05 19.11210 10 14 54.96 +02 57 49.4   C51 – WISE MPS 328656
2010 05 19.244407 10 15 00.05 +02 57 54.5   C51 – WISE MPS 328656
2010 05 19.376711 10 15 05.10 +02 57 59.9   C51 – WISE MPS 328656
2010 05 19.509015 10 15 10.10 +02 58 05.0   C51 – WISE MPS 328656
2010 05 19.641318 10 15 15.20 +02 58 12.6   C51 – WISE MPS 328656
2010 05 19.707535 10 15 17.84 +02 58 17.6   C51 – WISE MPS 328656
2010 05 19.773623 10 15 20.25 +02 58 16.9   C51 – WISE MPS 328656
2010 05 19.83984 10 15 22.95 +02 58 19.8   C51 – WISE MPS 328656
2010 05 19.905927 10 15 25.50 +02 58 23.2   C51 – WISE MPS 328656
2010 05 19.97214 10 15 27.98 +02 58 24.7   C51 – WISE MPS 328656
2010 05 20.104447 10 15 33.10 +02 58 30.7   C51 – WISE MPS 328656
2011 01 30.59621 15 36 00.459 -17 29 46.57 21.9 w F51 – Pan-STARRS 1, Haleakala MPS 379607
2011 01 30.60085 15 36 00.750 -17 29 47.17 22.0 w F51 – Pan-STARRS 1, Haleakala MPS 379607
2011 01 30.60627 15 36 01.074 -17 29 47.42 21.6 w F51 – Pan-STARRS 1, Haleakala MPS 379607
2011 05 07.37833 15 53 13.10 -12 37 39.3 20.6 V 291 – LPL/Spacewatch II MPS 382993
2011 05 07.38726 15 53 12.69 -12 37 36.1 20.7 V 291 – LPL/Spacewatch II MPS 382993
2011 05 07.39595 15 53 12.29 -12 37 33.0 20.5 V 291 – LPL/Spacewatch II MPS 382993
2011 05 21.24586 15 42 25.92 -11 18 21.4 20.3 V G96 – Mt. Lemmon Survey MPS 383931
2011 05 21.25329 15 42 25.56 -11 18 18.9 20.0 V G96 – Mt. Lemmon Survey MPS 383931
2011 05 21.26072 15 42 25.09 -11 18 16.7 20.3 V G96 – Mt. Lemmon Survey MPS 383931
2011 05 21.26824 15 42 24.84 -11 18 15.3 19.3 V G96 – Mt. Lemmon Survey MPS 383931
2011 06 04.21315 15 31 54.26 -10 10 54.5 20.2 V G96 – Mt. Lemmon Survey MPS 385309
2011 06 04.22187 15 31 53.90 -10 10 52.3 20.3 V G96 – Mt. Lemmon Survey MPS 385309
2011 06 04.23062 15 31 53.50 -10 10 49.9 20.1 V G96 – Mt. Lemmon Survey MPS 385309
2011 06 04.23939 15 31 53.14 -10 10 47.8 20.0 V G96 – Mt. Lemmon Survey MPS 385309
2012 08 07.35457 21 32 49.695 +02 34 10.48 20.0 r F51 – Pan-STARRS 1, Haleakala MPS 429294
2012 08 07.36422 21 32 49.255 +02 34 08.14 20.0 r F51 – Pan-STARRS 1, Haleakala MPS 429294
2012 08 07.47604 21 32 44.133 +02 33 41.45 20.0 i F51 – Pan-STARRS 1, Haleakala MPS 429294
2012 08 07.48677 21 32 43.643 +02 33 38.82 19.9 i F51 – Pan-STARRS 1, Haleakala MPS 429294
2012 08 08.39087 21 32 03.850 +02 29 56.61 20.3 r F51 – Pan-STARRS 1, Haleakala MPS 429294
2012 08 08.40118 21 32 03.371 +02 29 54.05 20.1 r F51 – Pan-STARRS 1, Haleakala MPS 429294
2012 08 08.41289 21 32 02.828 +02 29 51.00 20.3 i F51 – Pan-STARRS 1, Haleakala MPS 429294
2012 08 08.42448 21 32 02.292 +02 29 48.23 20.0 i F51 – Pan-STARRS 1, Haleakala MPS 429294
2012 08 10.37526 21 30 35.362 +02 21 18.94 20.6 g F51 – Pan-STARRS 1, Haleakala MPS 429937
2012 08 10.38617 21 30 34.858 +02 21 16.03 20.4 g F51 – Pan-STARRS 1, Haleakala MPS 429937
2012 08 10.39795 21 30 34.311 +02 21 12.91 20.7 g F51 – Pan-STARRS 1, Haleakala MPS 429937
2012 08 10.40919 21 30 33.783 +02 21 09.92 20.5 g F51 – Pan-STARRS 1, Haleakala MPS 429937
2012 09 15.24059 21 08 09.88 -01 28 38.4 20.6 V 703 – Catalina Sky Survey MPS 433171
2012 09 15.24973 21 08 09.70 -01 28 43.1 20.7 V 703 – Catalina Sky Survey MPS 433171
2012 09 15.25893 21 08 09.49 -01 28 45.0 20.9 V 703 – Catalina Sky Survey MPS 433171
2012 09 15.26807 21 08 09.34 -01 28 47.1 20.2 V 703 – Catalina Sky Survey MPS 433171
2013 10 25.36830 04 46 37.21 +14 05 04.3 20.2 V 691 – Steward Observatory, Kitt Peak-Spacewatch MPS 483389
2013 10 25.38948 04 46 36.76 +14 04 56.9 20.2 V 691 – Steward Observatory, Kitt Peak-Spacewatch MPS 483389
2013 10 25.40215 04 46 36.42 +14 04 52.3 20.3 V 691 – Steward Observatory, Kitt Peak-Spacewatch MPS 483389
2013 10 26.36992 04 46 15.67 +13 58 56.5 20.4 V 691 – Steward Observatory, Kitt Peak-Spacewatch MPS 484979
2013 10 26.39112 04 46 15.16 +13 58 49.0 20.3 V 691 – Steward Observatory, Kitt Peak-Spacewatch MPS 484979
2013 10 26.40378 04 46 14.87 +13 58 44.3 20.1 V 691 – Steward Observatory, Kitt Peak-Spacewatch MPS 484979
2013 10 28.35795 04 45 28.46 +13 46 40.3 20.7 V 691 – Steward Observatory, Kitt Peak-Spacewatch MPS 484979
2013 10 28.37061 04 45 28.10 +13 46 35.2 20.5 V 691 – Steward Observatory, Kitt Peak-Spacewatch MPS 484979
2013 10 28.38326 04 45 27.74 +13 46 30.7 20.1 V 691 – Steward Observatory, Kitt Peak-Spacewatch MPS 484979
2013 10 31.36775 04 44 05.84 +13 27 51.8 20.7 V 691 – Steward Observatory, Kitt Peak-Spacewatch MPS 484979
2013 10 31.38298 04 44 05.46 +13 27 46.0 20.5 V 691 – Steward Observatory, Kitt Peak-Spacewatch MPS 484979
2013 10 31.39564 04 44 05.00 +13 27 41.6 20.6 V 691 – Steward Observatory, Kitt Peak-Spacewatch MPS 484979
2013 11 01.34861 04 43 36.21 +13 21 41.8 20.7 V 691 – Steward Observatory, Kitt Peak-Spacewatch MPS 486877
